SLS DEB, 55904

Orbit data source: Space-Track

SLS DEB, 55904 is space debris in LEO originally from a launch on Wed, 16 Nov 2022 UTC launched from the Air Force Eastern Test Range (AFETR). Debris objects in space refer to the collection of defunct objects orbiting the Earth. Examples of debris include non-operational satellites, rocket bodies, and fragments generated from explosions, collisions, or faulty payload assembly.

Loading next visibility...
Identifier
55904, 2022-156D
Orbit
LEO
Country
Flag of USUS
Related business
Manufacturer
ULA Decatur
Mission
Spacecraft
Bus & Motor
Unknown
Mass
Unknown
Launch date (UTC)
2022-11-16 (4 years ago)
Launch vehicle
Unknown
Launch site
Air Force Eastern Test Range (AFETR)
Object type
Payload
Rocket body
Debris
Shape & HBR
Unknown shape, 0.1 m
Radar Cross Section
Medium (>0.1 m² and <1 m²)

Expand to show TLE details & history
Last TLE update: 3 months ago

TLE from 3 months ago
0 SLS DEB
1 55904U 22156D   26065.00048847  .00027087  00000-0  27014-2 0  9999
2 55904  30.3848 338.5339 1664293 183.4510 175.3112 11.91773076127178
Epoch: 2026-03-06T00:00Z
TLE epoch observation values (Epoch: 2026-03-06T00:00:42.203Z)
Latitude
-0.00002°
Longitude
174.61525°
Altitude
3,060.324 km
Speed
5.938 km/s
True Right ascension
22h 34m 08s
True Declination
0° 00' 00"
Sunlit
Object was in daylight at epoch
Visualization orbit readout
Latitude
Unknown
Longitude
Unknown
Altitude
Unknown
Speed
Unknown
Apparent Right ascension
Unknown
Apparent Declination
Unknown
Sunlit
N/A
Visualization observer readout
Local Sidereal Time
12:58:28
Azimuth
Unknown
Elevation
Unknown
Doppler factor
Unknown
Orbital elements
Apogee altitude
3,069.41 km
Perigee altitude
373.407 km
Semi-major axis
8,099.545 km
Eccentricity
0.16643
Inclination
30.3848°
RAAN
338.5339°
Arg. of periapsis
183.451°
True anomaly
176.60103°
Mean anomaly
175.3112°
Eccentric anomaly
175.97974°
Mean motion
2.9775 °/min
Orbital period
120.91 mins
BSTAR
0.0027014
Loading maneuver chart data...
Computing Atmospheric mass density...
Loading historical data...
Loading historical data...
Loading historical data...
Loading historical data...
Loading historical data...
Loading historical data...
Loading historical data...

Documentation

Showing up to 5 results
|